Location: Unspecified
(0.0000°N, 0.0000°E)
Time: 01:56:20
(UTC+00:00)

Hubble Space Telescope - Pass Details

Date: 21 February 2019
Orbit: 537 x 540 km, 28.5° (Epoch: 15 February)

Event Time Altitude Azimuth Distance (km) Brightness Sun altitude
Rises 18:42:45 0° 313° (NW) 2,670 4.9 -7.2°
Reaches altitude 10° 18:45:07 10° 321° (NW) 1,781 3.8 -7.7°
Maximum altitude 18:48:58 38° 30° (NNE) 823 1.4 -8.7°
Enters shadow 18:52:35 11° 98° (E) 1,696 2.7 -9.6°
